Вернуться в каталог

CZ-2C DEB

АктивенPO
NORAD 37732·DEBRIS·🇨🇳 China

Запущен Jul 6, 2011 с Jiuquan Satellite Launch Center

Loading…

Ближайшие Пролёты (ближайшие 24 часа)

TLE

СвежийSource: Space-Track

Эпоха: Sep 14, 2026, 13:14 UTC

1 37732U 11030C   26257.55164353  .00001039  00000-0  31822-3 0  9993
2 37732  97.9446 293.8103 0136765 227.8095 298.2041 14.38427509791242

Отслеживайте CZ-2C DEB в реальном времени с AllMySat

Download on the App Store